This is the latest recevied weather packets stored in our database for station/object HK4RAU-31. If no packets are shown the sender has not sent any weather packets the latest 1 day(s).
| Time | Temp. | Humidity | Pressure | Rain* | Wind** | Luminosity | Snow |
|---|---|---|---|---|---|---|---|
| 1778175869 | 16.11° C | 61% | 1014 hPa | 0 mm | - | - | - |
| 1778174926 | 16.11° C | 61% | 1015 hPa | 0 mm | - | - | - |
| 1778173597 | 16.11° C | 61% | 1015 hPa | 0 mm | - | - | - |
| 1778173039 | 16.11° C | 61% | 1015 hPa | 0 mm | - | - | - |
| 1778172293 | 16.11° C | 63% | 1015 hPa | 0 mm | - | - | - |
| 1778171920 | 16.11° C | 63% | 1015 hPa | 0 mm | - | - | - |
| 1778171552 | 16.11° C | 63% | 1016 hPa | 0 mm | - | - | - |
| 1778171181 | 16.11° C | 63% | 1016 hPa | 0 mm | - | - | - |
| 1778170622 | 16.11° C | 63% | 1016 hPa | 0 mm | - | - | - |
| 1778170244 | 16.11° C | 63% | 1016 hPa | 0 mm | - | - | - |
| 1778169140 | 16.67° C | 65% | 1016 hPa | 0 mm | - | - | - |
| 1778168767 | 16.67° C | 66% | 1016 hPa | 0 mm | - | - | - |
| 1778168213 | 17.78° C | 70% | 1016 hPa | 0 mm | - | - | - |
| 1778167840 | 15.56° C | 72% | 1018 hPa | 0 mm | - | - | - |
| 1778167654 | 15.56° C | 72% | 1018 hPa | 0 mm | - | - | - |
| 1778167286 | 15.56° C | 72% | 1018 hPa | 0 mm | - | - | - |
| 1778164879 | 16.11° C | 82% | 1018 hPa | 0 mm | - | - | - |
| 1778164505 | 13.33° C | 84% | 1019 hPa | 0 mm | - | - | - |
| 1778164132 | 13.33° C | 84% | 1019 hPa | 0 mm | - | - | - |
| 1778163946 | 13.33° C | 84% | 1019 hPa | 0 mm | - | - | - |
| 1778163199 | 13.33° C | 87% | 1019 hPa | 0 mm | - | - | - |
| 1778162826 | 13.33° C | 87% | 1019 hPa | 0 mm | - | - | - |
| 1778162458 | 13.33° C | 90% | 1019 hPa | 0 mm | - | - | - |
| 1778162085 | 13.33° C | 90% | 1019 hPa | 0 mm | - | - | - |
| 1778161717 | 12.78° C | 93% | 1019 hPa | 0 mm | - | - | - |
* Rain latest hour (hover to see other rain measurements)
** Current wind speed in m/s (hover to see current wind gust speed)